www.pogodaiklimat.ru

Погода и климат >> Архив погоды >> Китай >> Гирин >> Линьцзян


ПОГОДА в Линьцзяне

  • Прогноз погоды в Линьцзяне
  • Монитор погоды в Линьцзяне

АРХИВ ПОГОДЫ в Линьцзяне

Время (UTC), дата Ветер
(напр.,м/с)
 
Видим.   Явления Облачность Т
(С)
Тd
(С)
f
(%)
Тe
(С)
Тes
(С)
Комфортность P
(гПа)
Po
(гПа)
Тmin
(С)
Tmax
(С)
R
(мм)
R24
(мм)
S
(см)
18 14.05 С 2 30 км н/о +6.2 +2.6 78 +4 +4 1013.9 969.1 +23.8
21 14.05 С 2 23 км н/о +4.2 +2.2 87 +1 +1 1015.3 974.5
00 15.05 Ю 1 30 км ясно +12.3 +4.5 59 +13 +24 опасность
простуды
1014.4 969.5
03 15.05 Ю 2 30 км 3/3 1000 м
[]
+23.0 +1.3 24 +22 +35 комфорт 1010.8 972.7
06 15.05 Ю 5 30 км 8/8 1000 м
[]
+26.6 -6.2 11 +24 +25 комфорт 1008.3 964.1 +3.9
09 15.05 Ю 4 30 км 6/6 1000 м
[]
+25.3 -4.0 14 +23 +24 комфорт 1006.9 969.2
12 15.05 Ю 4 30 км 9/9 1000 м
[]
+22.8 -5.1 15 +21 +21 комфорт 1007.6 963.6
15 15.05 Ю 4 30 км н/о +19.6 +0.1 27 +20 +20 1008.4 970.0
18 15.05 С 1 26 км н/о +15.8 +4.5 47 +17 +17 1009.1 965.5 +27.0
21 15.05 СВ 1 2800 м дождь н/о +12.0 +10.6 91 +12 +12 1011.2 971.6
00 16.05 С 2 8000 м 10/10
[]
+12.5 +11.1 91 +12 +12 1011.1 966.9 12
03 16.05 штиль 0 12 км {дождь} 8/8 600 м
[]
+17.4 +12.9 75 +17 +22 1010.0 971.2
06 16.05 ЮЗ 4 30 км {дождь} 8/8 600 м
[]
+21.2 +12.6 58 +23 +25 комфорт 1008.3 964.4 +11.5 0.2
09 16.05 ЮЗ 4 30 км 9/9 600 м
[]
+20.4 +12.6 61 +23 +23 комфорт 1008.5 970.2
12 16.05 Ю 2 30 км 5/5 1000 м
[]
+19.1 +12.8 67 +21 +21 комфорт 1010.5 966.1
15 16.05 В 2 22 км н/о +15.8 +13.1 84 +16 +16 1010.7 971.7
18 16.05 ЮЗ 2 12 км н/о +16.7 +11.8 73 +17 +17 1010.7 966.7 +22.5
21 16.05 С 2 10 км н/о +13.9 +11.4 85 +13 +13 1011.6 972.3
00 17.05 Ю 2 20 км ясно +19.9 +13.1 65 +22 +32 комфорт 1011.7 967.8
03 17.05 ЮЗ 4 30 км 4/4
[]
+24.2 +10.1 41 +25 +33 комфорт 1010.2 972.3
06 17.05 Ю 4 30 км ясно +25.5 +10.5 39 +26 +36 жарко 1008.9 965.3 +13.8
09 17.05 ЮЗ 4 30 км 6/6
[]
+25.3 +7.4 32 +25 +26 комфорт 1008.9 971.2
12 17.05 ЮЗ 2 30 км ясно +21.6 +9.8 47 +23 +23 комфорт 1010.7 967.0
15 17.05 С 2 24 км н/о +13.9 +10.5 80 +13 +13 1012.8 973.4
18 17.05 З 1 8000 м н/о +11.0 +9.4 90 +11 +11 1013.3 969.1 +26.2
21 17.05 С 2 4100 м дымка н/о +9.6 +8.7 94 +8 +8 1014.2 974.2
00 18.05 Ю 1 2100 м ясно +15.8 +11.4 75 +17 +28 1013.9 969.8
03 18.05 ЮЗ 2 17 км 4/4 1000 м
[]
+25.3 +11.8 43 +27 +38 жарко 1011.7 973.8
06 18.05 ЮЗ 5 30 км 5/5 1000 м
[]
+27.6 +8.5 30 +27 +31 жарко 1009.5 965.6 +9.6
09 18.05 З 2 28 км 4/4 1000 м
[]
+27.5 +10.7 35 +28 +30 жарко 1008.6 971.1
12 18.05 С 3 15 км ясно +18.8 +10.4 58 +20 +20 1010.4 966.2
15 18.05 С 2 30 км н/о +15.9 +9.3 65 +16 +16 1011.9 972.8
18 18.05 С 3 30 км н/о +13.1 +9.3 78 +12 +12 1011.1 967.3 +28.5
21 18.05 С 2 14 км н/о +11.1 +8.8 86 +10 +10 1010.8 971.1
00 19.05 СВ 1 22 км 9/9 1000 м
[]
+16.9 +10.7 67 +18 +19 1009.4 965.3
03 19.05 штиль 0 14 км в посл. час дождь 10/10 1000 м
[]
+19.0 +13.0 68 +20 +20 1007.2 968.7
06 19.05 В 1 19 км слаб. дождь 10/10 1000 м
[]
+19.7 +14.5 72 +23 +23 комфорт 1004.8 960.7 +11.1 0.0
09 19.05 Ю 2 4900 м слаб. дождь 10/10 1000 м
[]
+16.5 +15.2 92 +17 +17 1003.3 964.6
12 19.05 штиль 0 4200 м в посл. час дождь 10/10 1000 м
[]
+16.2 +15.4 95 +16 +16 1000.4 956.5 3
15 19.05 Ю 1 2000 м дождь н/о +15.9 +15.4 97 +17 +17 997.1 958.6
18 19.05 С 3 4900 м слаб. дождь ?/? +11.8 +9.5 86 +10 +10 996.5 952.7 +20.3 15
21 19.05 ЮЗ 2 10 км слаб. дождь н/о +12.1 +9.5 84 +11 +11 995.3 956.4
00 20.05 ЮЗ 4 29 км 9/9 1000 м
[]
+12.0 +5.2 63 +10 +11 996.7 952.6 0.8
03 20.05 ЮЗ 5 30 км в посл. час дождь 9/9 1000 м
[]
+12.6 +3.8 55 +11 +12 997.5 958.6
06 20.05 ЮЗ 5 30 км слаб. дождь 9/9 1000 м
[]
+12.5 +3.2 53 +11 +11 998.6 954.2 +11.0 0.1
09 20.05 ЮЗ 5 29 км слаб. дождь 10/10 1000 м
[]
+12.5 +4.7 59 +10 +10 998.3 959.3
12 20.05 ЮЗ 3 30 км в посл. час дождь 10/10 1000 м
[]
+9.9 +6.8 81 +8 +8 1001.0 956.3 3
15 20.05 З 1 7000 м слаб. дождь н/о +8.3 +7.2 93 +7 +7 1001.1 961.4
18 20.05 В 1 27 км ?/? +7.9 +6.8 93 +7 +7 999.9 955.1 +14.4 0.8
21 20.05 С 1 28 км в посл. час дождь н/о +7.5 +6.4 93 +6 +6 999.5 959.8
00 21.05 Ю 4 30 км 8/8 1000 м
[]
+14.0 +6.6 61 +13 +14 997.9 953.5 0.2
03 21.05 З 7 29 км 8/8 1000 м
[]
+16.3 +1.9 38 +15 +16 997.7 959.2
06 21.05 ЮЗ 3 30 км 9/9 1000 м
[]
+17.5 +0.2 31 +18 +19 996.8 952.5 +7.2
09 21.05 ЮЗ 3 29 км 9/9 1000 м
[]
+15.7 +3.1 43 +15 +16 999.4 960.8
12 21.05 С 2 30 км в посл. час дождь 9/9 1000 м
[]
+12.1 +7.6 74 +11 +11 1000.2 955.8 0.0
15 21.05 С 1 30 км н/о +10.1 +6.8 80 +10 +10 999.4 960.0

 

Местоположение метеостанции Линьцзян (Гирин, Китай): широта 41.72 долгота 126.91 высота над уровнем моря 333 м.

В архиве по умолчанию представлена погода в Линьцзяне за последнюю неделю. Архивные данные за месяц целиком и за предыдущие месяцы, начиная с января 2011 года, Вы можете получить, выбрав интересующий диапазон дат из раскрывающегося списка и нажав кнопку "Ввод!".


*Определитесь, кто Вы:
робот инопланетянин человек

Внимание! Время в таблицах - всемирное. Для получения местного времени необходимо прибавить поправку, которая равна 8 ч.

Смотрите также архив погоды в соседних городах и на ближайших метеорологических станциях:

Погода в Чунгане (КНДР) (7 км)
Погода в Канге (КНДР) (87 км)
Погода в Цзиане (Цзяньси, Китай) (94 км)
Погода в Хесене (КНДР) (110 км)
Погода в Чанбае (Гирин, Китай) (112 км)
Погода в Самджиёне (КНДР) (116 км)
Погода в Хуадяне (Гирин, Китай) (141 км)
Погода в Пунгсане (КНДР) (144 км)
Погода в Джангджине (КНДР) (153 км)
Погода в Цинъюане (Гуандун, Китай) (168 км)

Пояснения к столбцам:

Ветер - указаны скорость ветра в м/с - средняя за 10 мин, порывы в срок и между сроками (в фигурных скобках) и направление, откуда дует ветер: С - северный, СВ - северо-восточный, В - восточный, ЮВ - юго-восточный, Ю - южный, ЮЗ - юго-западный, З - западный, СЗ - северо-западный.
Видимость - горизонтальная дальность видимости в метрах или километрах. При видимости от 1 до 10 км при отсутствии осадков обычно наблюдается дымка, при ухудшении видимости до 1 км и менее - туман. В сухую погоду видимость может ухудшаться дымом, пылью или мглою.
Явления - указаны атмосферные явления, наблюдавшиеся в срок или в последний час перед сроком; фигурными скобками обозначены явления, наблюдавшиеся между сроками (за 1-3 часа до срока); квадратными скобками обозначены град или гололедные отложения с указанием их диаметра в мм.
Облачность - указаны через наклонную черту общая и нижняя облачность в баллах и высота нижней границы облаков в метрах; квадратными скобками обозначены формы облаков: Ci - перистые, Cs - перисто-слоистые, Cc - перисто-кучевые, Ac - высококучевые, As - высокослоистые, Sc - слоисто-кучевые, Ns - слоисто-дождевые, Cu - кучевые, Cb - кучево-дождевые. Подробнее классификацию облаков см. в Атласе облаков (PDF).
T - Температура воздуха - температура, измеренная на высоте 2 м над землей.
Td - Температура точки росы - температура, при понижении до которой содержащийся в воздухе водяной пар достигнет насыщения.
f - Относительная влажность воздуха - влажноcть воздуха, измеренная на высоте 2 м над землей.
Te - Эффективная температура - температура, которую ощущает одетый по сезону человек в тени. Характеристика душности погоды. При расчете учитывается влияние влажности воздуха и скорости ветра на теплоощущения человека.
Tes - Эффективная температура на солнце - температура, которую ощущает человек, с поправкой на солнечный нагрев. Характеристика знойности погоды. Зависит от высоты солнца над горизонтом, облачности и скорости ветра. Ночью, в пасмурную погоду, а также при ветре 12 м/с и более поправка равна нулю.
P - Атмосферное давление - приведенное к уровню моря атмосферное давление.
Po - Атмосферное давление - измеренное на уровне метеостанции атмосферное давление.
Tmin - Минимальная температура - минимум температуры воздуха на высоте 2 м над землей.
Tmax - Максимальная температура - максимум температуры воздуха на высоте 2 м над землей.
R - Количество осадков - Количество выпавших осадков за период времени, мм. При наведении курсора мыши на число - период времени, за который выпало указанное количество осадков.
R24 - Количество осадков - Количество выпавших осадков за 24 часа, мм.
S - Снежный покров - Высота снежного покрова, см. При наведении курсора мыши на число - состояние снежного покрова и степень покрытия местности в баллах.